Location: Newark
(50.8086°N, 4.3114°E)
Time: 09:28:29
(UTC+00:00)

XW-2D - Pass Details

Date: 25 January 2020
Orbit: 507 x 528 km, 97.5° (Epoch: 25 February)

Event Time Altitude Azimuth Distance (km) Brightness Sun altitude
Rises 05:46:40 0° 14° (NNE) 2,636 ? -16.0°
Reaches altitude 10° 05:48:47 10° 15° (NNE) 1,742 ? -15.6°
Maximum altitude 05:52:32 80° 102° (ESE) 523 ? -15.0°
Drops below altitude 10° 05:56:14 10° 191° (S) 1,721 ? -14.5°
Sets 05:58:19 0° 192° (SSW) 2,600 ? -14.2°
